Location: Jackson Park
(37.2862°N, 79.9123°W)
Time: 20:12:15
(UTC+00:00)

Vanguard 3 - Pass Details

Date: 13 May 2026
Orbit: 507 x 3205 km, 33.4° (Epoch: 31 May)

Event Time Altitude Azimuth Distance (km) Brightness Sun altitude
Rises 03:21:48 0° 275° (W) 5,648 11.9 -28.2°
Maximum altitude 03:31:42 10° 234° (SW) 3,586 10.3 -29.2°
Drops below altitude 10° 03:31:46 10° 234° (SW) 3,578 10.3 -29.2°
Enters shadow 03:33:21 - 223° (SW) 3,441 10.2 -29.3°
Sets 03:38:45 0° 187° (S) 3,712 - -29.8°
